Tracking 30995 objects as of 7-Jul-2025
HD Live streaming from Space Station
objects crossing your sky now

COSMOS 1275 DEB

Track COSMOS 1275 DEB now!
10-day predictions


NORAD ID: 13817
Int'l Code: 1981-053HQ
Perigee: 861.1 km
Apogee: 894.7 km
Inclination: 82.9 °
Period: 102.4 minutes
Semi major axis: 7248 km
RCS: 0.0127 m2 (small)
Launch date: June 4, 1981
Source: Commonwealth of Independent States (former USSR) (CIS)
Launch site: PLESETSK MISSILE AND SPACE COMPLEX (PKMTR)

Note: This is SATELLITE DEBRIS
Your satellite tracking list
Your tracking list is empty




NASA's NSSDC Master Catalog

Two Line Element Set (TLE):
1 13817U 81053HM  25186.96797355  .00001236  00000-0  73405-3 0  9994
2 13817  82.9432 188.0318 0023173 312.1828  47.7377 14.06681615207664
Source of the keplerian elements: AFSPC